Starlink 32762

operational
NORAD ID: 62748 Int'l Des: 2025-014 Owner: SPXS Country: US Constellation: starlink
LEOCIRCULAR

Starlink 32762について

説明を読み込み中...

リアルタイム位置

3D地球を読み込み中...

次回通過

高度履歴

Altitude vs Time

uPlot chart will show altitude changes over time

軌道要素

1 62748U 25014P 25351.19779357 .00030747 00000-0 11199-2 0 9997
2 62748 42.9999 263.5214 0001723 263.3142 96.7514 15.27646574 50608
Epoch: Dec 17, 2025 • Age: 11 hours

現在のステータス

高度 489.4 km
速度 7.62 km/s
衛星直下点 -28.31°S, 93.7°W
打ち上げ日 Jan 21, 2025
運用期間 0.9 years
タイプ internet

技術仕様

分類 Payload
質量 730.00 kg
乾燥質量 700.00 kg
総質量 730.00 kg
長さ 0.30 m
直径 4.10 m
スパン 29.00 m
形状 Box + pan
製造者 SPXS
バスタイプ Starlink V2M
フェーズステータス In Orbit
所有者/国 SPXS/US

大規模コンステレーション

Loading constellations...